{"data":{"norad_id":62924,"intl_designator":"2025-027T","name":"STARLINK-32871","alt_names":[],"object_type":"PAYLOAD","status":"ACTIVE","operator":null,"country":"US","launch_date":"2025-02-08","launch_site_code":"AFETR","launch_vehicle":null,"mission":null,"orbit_class":"UNKNOWN","rcs_meters":null,"size_class":null,"mass_kg":null,"dimensions":null,"purposes":["comms"],"wikipedia_slug":null,"has_3d_model":false,"image_url":null,"decayed_at":null,"tle_current":{"epoch":"2026-05-25T03:14:58.463232Z","epoch_age_seconds":66647,"freshness":"FRESH","line1":"1 62924U 25027T   26145.13539888  .00008949  00000+0  33425-3 0  9991","line2":"2 62924  43.0018  57.1414 0001130 276.5727  83.4996 15.27589207 73234","mean_motion":15.27589207,"eccentricity":0.000113,"inclination_deg":43.0018,"raan_deg":57.1414,"arg_perigee_deg":276.5727,"mean_anomaly_deg":83.4996,"bstar":0.00033425,"rev_number":7323,"period_min":94.26618055439,"perigee_km":482.24621619436,"apogee_km":483.79683802149,"semimajor_km":6861.1585271079,"source":"CELESTRAK","updated_at":"2026-05-25T13:38:19.822984Z"}}}